Temp
-5 -5 -5 -5 -4 -5 -5 -5 -5 -5 -5 -5 -5 -5 -6 -5 -5 -5 -5 -5 -5 -5 -5 -4 -4 -4 -4 -4 -4 -4 -4 -4 -3 -3 -3 -3 -3 -3 -3 -3 -3 -3
-6 -6 -6 -6 -6 -6 -6 -6 -6 -6 -7 -7 -7 -7 -7 -7 -7 -7 -6 -6 -6 -6 -6 -6 -6 -5 -5 -5 -5 -5 -5 -4 -4 -4 -4 -4 -4 -4 -4 -3 -3 -3
-8 -8 -8 -8 -8 -8 -7 -8 -8 -8 -8 -8 -8 -8 -8 -8 -8 -8 -8 -7 -7 -7 -7 -7 -7 -6 -6 -6 -6 -6 -5 -5 -5 -5 -5 -5 -5 -5 -4 -4 -4 -4
-10 -10 -10 -10 -10 -10 -9 -9 -9 -9 -9 -9 -10 -10 -10 -10 -9 -9 -9 -8 -8 -8 -7 -8 -7 -7 -7 -7 -7 -6 -6 -6 -6 -6 -6 -6 -5 -5 -5 -5 -5 -5
-12 -12 -12 -12 -12 -12 -12 -11 -11 -10 -10 -11 -11 -11 -11 -11 -11 -10 -10 -10 -9 -9 -9 -9 -8 -8 -8 -8 -7 -7 -7 -7 -7 -7 -7 -6 -6 -6 -6 -6 -6 -6
-13 -13 -13 -13 -13 -13 -13 -13 -12 -12 -12 -12 -12 -12 -12 -12 -12 -12 -11 -11 -10 -10 -10 -10 -9 -9 -9 -9 -8 -8 -8 -8 -8 -8 -7 -7 -7 -7 -7 -7 -7 -6
-14 -14 -14 -14 -14 -14 -13 -13 -13 -13 -13 -13 -13 -13 -12 -13 -13 -13 -12 -12 -11 -11 -11 -11 -10 -10 -10 -9 -9 -9 -9 -9 -9 -8 -8 -8 -8 -8 -8 -8 -7 -7
-15 -14 -14 -14 -14 -14 -13 -13 -13 -13 -13 -13 -13 -13 -12 -12 -13 -13 -13 -12 -12 -12 -12 -11 -11 -10 -10 -10 -10 -10 -9 -9 -9 -9 -9 -9 -9 -8 -8 -8 -8 -8
-15 -15 -15 -15 -14 -14 -14 -14 -14 -13 -13 -13 -13 -13 -13 -13 -13 -13 -13 -13 -12 -12 -12 -12 -11 -11 -11 -11 -10 -10 -10 -10 -9 -9 -9 -9 -9 -9 -9 -9 -9 -8
-16 -16 -16 -15 -15 -15 -15 -15 -14 -14 -14 -14 -13 -13 -13 -13 -13 -13 -13 -12 -12 -12 -12 -12 -12 -11 -11 -11 -11 -11 -11 -10 -10 -10 -10 -9 -9 -9 -9 -9 -9 -9
-16 -16 -16 -16 -16 -16 -16 -15 -15 -15 -15 -15 -14 -14 -14 -14 -14 -13 -13 -13 -12 -12 -12 -12 -12 -12 -12 -12 -11 -11 -11 -11 -11 -10 -10 -10 -10 -10 -10 -9 -9 -9
-16 -16 -16 -16 -16 -16 -16 -16 -15 -15 -15 -15 -15 -15 -15 -15 -14 -14 -14 -14 -13 -13 -12 -12 -12 -12 -12 -12 -12 -12 -11 -11 -11 -11 -11 -10 -10 -10 -10 -10 -10 -10
-16 -17 -17 -16 -16 -16 -16 -16 -16 -16 -15 -15 -15 -15 -15 -15 -15 -15 -15 -15 -14 -14 -14 -13 -13 -13 -13 -13 -12 -12 -12 -12 -12 -11 -11 -11 -11 -11 -11 -10 -10 -10
-17 -17 -17 -17 -17 -17 -17 -17 -16 -16 -16 -16 -16 -16 -15 -15 -15 -15 -15 -15 -15 -15 -15 -15 -15 -15 -15 -14 -13 -13 -12 -12 -12 -12 -12 -12 -12 -12 -12 -11 -11 -11
-18 -18 -18 -18 -18 -18 -17 -17 -17 -17 -17 -16 -16 -16 -16 -16 -16 -16 -16 -16 -16 -16 -16 -16 -16 -16 -16 -16 -15 -14 -13 -12 -12 -12 -12 -12 -12 -13 -13 -12 -12 -12
-19 -19 -19 -19 -18 -18 -18 -18 -18 -18 -17 -17 -17 -17 -16 -16 -16 -16 -16 -16 -16 -16 -16 -16 -17 -17 -18 -18 -18 -16 -14 -13 -13 -12 -13 -13 -13 -13 -13 -13 -13 -13
-19 -19 -19 -19 -19 -19 -19 -19 -18 -18 -18 -18 -18 -17 -17 -17 -17 -17 -17 -17 -17 -17 -17 -17 -17 -17 -18 -20 -20 -18 -16 -15 -15 -14 -14 -14 -14 -14 -14 -14 -14 -14
-20 -20 -20 -20 -20 -20 -19 -19 -19 -19 -19 -18 -18 -18 -18 -18 -18 -17 -17 -17 -17 -17 -17 -17 -18 -18 -19 -21 -22 -20 -18 -17 -16 -16 -15 -15 -15 -15 -15 -15 -15 -15
-20 -20 -20 -20 -20 -20 -20 -20 -19 -19 -19 -19 -19 -19 -19 -18 -18 -18 -18 -18 -18 -18 -18 -18 -19 -19 -19 -21 -22 -23 -21 -19 -18 -17 -17 -16 -17 -17 -17 -17 -17 -17
-21 -21 -21 -21 -21 -21 -21 -20 -20 -20 -20 -20 -20 -20 -19 -19 -19 -19 -19 -19 -19 -19 -19 -19 -19 -19 -20 -21 -22 -24 -23 -21 -19 -18 -18 -18 -18 -18 -18 -18 -18 -18
-21 -21 -21 -21 -21 -21 -21 -21 -21 -21 -21 -21 -21 -21 -21 -20 -20 -20 -20 -20 -20 -20 -20 -20 -20 -20 -20 -21 -22 -24 -25 -24 -22 -20 -20 -20 -20 -20 -20 -20 -20 -19
-22 -22 -22 -22 -22 -22 -22 -22 -22 -22 -22 -22 -22 -22 -22 -22 -22 -21 -21 -21 -21 -21 -21 -21 -21 -21 -21 -21 -22 -24 -25 -25 -23 -22 -21 -20 -21 -21 -21 -21 -21 -21
-22 -22 -23 -23 -23 -23 -23 -23 -23 -23 -23 -23 -23 -23 -23 -23 -23 -23 -23 -22 -22 -22 -22 -21 -21 -22 -22 -22 -22 -24 -25 -25 -25 -24 -22 -21 -21 -21 -22 -22 -22 -22
-23 -23 -24 -24 -24 -24 -24 -24 -24 -24 -24 -24 -24 -24 -24 -24 -24 -24 -24 -24 -23 -23 -23 -23 -22 -22 -22 -23 -23 -24 -25 -26 -27 -26 -24 -23 -22 -22 -22 -22 -23 -23
-24 -24 -24 -24 -25 -25 -25 -25 -25 -25 -25 -25 -25 -24 -24 -25 -25 -25 -25 -25 -25 -24 -24 -24 -23 -23 -23 -23 -23 -24 -25 -26 -28 -27 -25 -24 -24 -24 -23 -23 -23 -23
-25 -25 -25 -25 -25 -25 -25 -25 -26 -26 -25 -25 -25 -25 -25 -25 -25 -25 -26 -26 -26 -26 -25 -25 -25 -24 -24 -24 -24 -24 -25 -26 -27 -27 -26 -26 -26 -25 -24 -24 -24 -24
Height
1498 1497 1496 1494 1493 1493 1492 1491 1490 1489 1488 1487 1487 1486 1486 1485 1483 1482 1481 1480 1479 1478 1478 1477 1476 1475 1474 1473 1472 1472 1471 1470 1469 1468 1468 1467 1467 1467 1467 1466 1466 1466
1498 1497 1495 1494 1493 1491 1490 1489 1488 1488 1487 1486 1486 1486 1485 1485 1483 1482 1481 1480 1479 1478 1478 1477 1476 1475 1474 1473 1472 1471 1470 1469 1468 1468 1467 1467 1467 1466 1466 1466 1465 1465
1499 1498 1496 1494 1493 1491 1490 1489 1488 1487 1486 1486 1485 1486 1485 1485 1484 1482 1481 1480 1479 1478 1478 1477 1476 1475 1474 1473 1472 1471 1470 1469 1468 1468 1467 1467 1466 1466 1466 1465 1465 1465
1500 1499 1498 1496 1494 1493 1491 1490 1489 1487 1487 1486 1486 1486 1486 1486 1485 1483 1481 1480 1479 1478 1478 1477 1476 1476 1475 1474 1473 1472 1471 1470 1469 1468 1467 1467 1467 1466 1466 1465 1465 1465
1501 1500 1499 1498 1496 1495 1494 1492 1491 1490 1488 1487 1486 1487 1487 1486 1485 1484 1482 1481 1480 1479 1478 1477 1476 1476 1475 1474 1473 1473 1472 1471 1470 1469 1468 1467 1467 1466 1466 1466 1465 1465
1503 1501 1500 1499 1498 1497 1496 1494 1493 1492 1491 1489 1488 1488 1488 1488 1487 1485 1483 1482 1481 1480 1479 1478 1477 1476 1475 1474 1474 1473 1472 1472 1471 1470 1469 1468 1467 1466 1466 1466 1466 1465
1505 1503 1502 1501 1500 1499 1497 1495 1494 1493 1492 1492 1491 1489 1489 1490 1490 1488 1485 1483 1482 1481 1480 1479 1479 1478 1476 1475 1474 1473 1473 1472 1471 1471 1470 1469 1468 1467 1467 1466 1466 1465
1506 1505 1504 1503 1501 1500 1499 1497 1495 1494 1493 1492 1492 1490 1490 1491 1493 1491 1488 1485 1483 1482 1481 1480 1480 1479 1478 1476 1475 1474 1473 1473 1472 1472 1471 1470 1469 1468 1468 1467 1466 1465
1508 1507 1505 1504 1503 1501 1499 1498 1497 1495 1494 1493 1492 1490 1489 1491 1493 1493 1491 1488 1485 1484 1482 1481 1480 1479 1478 1477 1476 1475 1474 1473 1473 1472 1472 1471 1470 1469 1468 1467 1466 1466
1511 1509 1508 1506 1505 1503 1501 1499 1497 1496 1495 1494 1493 1492 1490 1490 1491 1491 1491 1489 1487 1485 1483 1482 1480 1479 1479 1478 1476 1475 1474 1473 1473 1472 1472 1471 1471 1470 1469 1468 1467 1466
1513 1511 1510 1508 1507 1505 1503 1501 1499 1498 1496 1495 1494 1493 1492 1491 1490 1489 1488 1488 1487 1486 1484 1482 1481 1480 1479 1478 1476 1475 1473 1473 1473 1472 1472 1471 1471 1470 1469 1468 1467 1466
1514 1512 1511 1509 1508 1506 1505 1503 1501 1499 1498 1496 1495 1494 1493 1492 1490 1489 1487 1486 1485 1484 1484 1483 1482 1480 1479 1477 1476 1475 1473 1473 1472 1472 1471 1471 1470 1469 1469 1468 1467 1466
1515 1513 1511 1510 1508 1507 1505 1504 1502 1500 1499 1497 1496 1495 1494 1492 1491 1489 1487 1486 1484 1483 1482 1482 1481 1480 1478 1477 1475 1474 1473 1472 1471 1471 1470 1470 1470 1469 1468 1467 1466 1465
1515 1513 1512 1510 1508 1507 1505 1504 1502 1500 1499 1497 1496 1495 1494 1492 1491 1489 1487 1486 1485 1483 1482 1481 1480 1479 1477 1475 1474 1473 1472 1471 1470 1469 1469 1469 1468 1468 1467 1466 1465 1464
1515 1513 1512 1510 1508 1507 1505 1503 1501 1500 1498 1497 1495 1494 1492 1491 1490 1489 1487 1486 1485 1484 1482 1481 1481 1479 1476 1473 1472 1472 1471 1470 1469 1469 1469 1468 1468 1467 1467 1466 1464 1463
1514 1513 1511 1509 1508 1506 1504 1502 1501 1499 1497 1496 1494 1493 1491 1490 1489 1488 1487 1486 1485 1484 1482 1481 1480 1478 1476 1473 1471 1470 1470 1468 1468 1468 1468 1467 1467 1466 1466 1465 1464 1463
1513 1512 1510 1508 1507 1505 1503 1502 1500 1498 1496 1495 1493 1492 1490 1489 1488 1487 1486 1485 1484 1483 1482 1481 1480 1478 1476 1474 1470 1468 1468 1467 1466 1466 1466 1465 1465 1465 1464 1463 1462 1462
1512 1511 1509 1507 1505 1504 1502 1500 1498 1496 1495 1493 1491 1490 1489 1487 1486 1485 1485 1483 1482 1481 1480 1480 1479 1477 1476 1475 1470 1466 1465 1466 1465 1464 1464 1463 1463 1463 1462 1462 1461 1460
1510 1509 1507 1505 1504 1502 1500 1498 1497 1495 1493 1491 1490 1488 1487 1485 1484 1483 1482 1482 1481 1479 1478 1478 1478 1476 1475 1474 1470 1464 1462 1464 1464 1463 1462 1461 1461 1461 1461 1460 1459 1458
1508 1507 1505 1503 1502 1500 1499 1497 1495 1493 1492 1490 1488 1486 1485 1483 1482 1481 1480 1479 1479 1478 1476 1475 1475 1474 1472 1471 1469 1463 1459 1460 1462 1462 1461 1460 1459 1460 1459 1458 1457 1455
1506 1505 1503 1501 1499 1498 1497 1495 1493 1492 1490 1488 1486 1484 1483 1481 1480 1479 1478 1477 1476 1476 1475 1473 1472 1471 1470 1469 1467 1463 1458 1457 1458 1459 1460 1459 1457 1457 1456 1455 1454 1453
1504 1502 1501 1500 1498 1496 1495 1493 1491 1490 1488 1486 1484 1483 1481 1479 1478 1477 1476 1475 1474 1473 1473 1471 1470 1469 1468 1467 1466 1462 1457 1454 1455 1456 1457 1457 1456 1455 1454 1452 1451 1450
1502 1501 1499 1498 1496 1494 1493 1491 1489 1487 1486 1484 1483 1481 1479 1478 1476 1474 1473 1472 1471 1470 1470 1469 1468 1467 1466 1465 1464 1461 1456 1453 1452 1452 1453 1454 1453 1452 1451 1450 1448 1447
1501 1499 1497 1496 1494 1492 1491 1489 1487 1486 1484 1482 1480 1479 1477 1475 1474 1472 1470 1469 1468 1467 1466 1466 1465 1464 1463 1462 1461 1459 1456 1452 1449 1448 1449 1450 1449 1449 1448 1447 1446 1444
1498 1496 1495 1493 1492 1490 1488 1487 1485 1483 1481 1479 1478 1476 1474 1473 1471 1470 1468 1466 1465 1464 1463 1462 1462 1461 1460 1459 1458 1457 1455 1451 1447 1445 1446 1446 1445 1445 1445 1444 1443 1442
1495 1494 1492 1490 1489 1487 1486 1484 1482 1480 1478 1477 1475 1473 1471 1470 1468 1467 1465 1464 1462 1461 1459 1459 1458 1458 1457 1456 1455 1454 1453 1450 1445 1443 1443 1443 1441 1441 1441 1440 1440 1439
Wind_Speed
16 16 16 15 15 14 14 13 11 10 9 8 7 6 5 5 4 4 3 3 2 2 2 1 2 2 2 2 2 1 2 2 1 2 2 1 2 3 4 5 6 6
14 14 14 14 15 15 14 13 12 11 9 8 7 7 6 6 6 6 5 5 4 4 3 3 3 3 2 3 3 3 3 3 3 4 4 2 1 1 2 3 3 4
10 10 10 10 10 11 10 10 10 9 9 8 8 7 7 6 6 6 6 6 6 5 5 5 5 4 4 4 4 4 4 4 4 5 4 3 3 3 2 1 0 1
4 4 4 4 4 5 6 7 7 8 8 7 7 7 6 6 5 6 6 6 6 6 6 6 6 5 5 5 5 5 5 5 6 6 5 4 4 4 3 3 3 2
3 3 4 4 5 5 4 4 4 4 5 6 6 6 6 6 6 6 7 7 7 6 6 7 7 6 6 5 5 5 5 6 6 6 5 4 5 5 4 4 4 3
6 6 6 6 7 7 7 7 8 7 5 6 6 7 7 7 7 8 8 8 8 7 7 7 8 7 6 6 6 5 5 6 6 5 4 4 5 5 4 4 3 3
9 9 8 8 8 8 8 9 10 10 10 9 8 8 8 9 9 9 9 9 8 8 8 7 7 7 7 6 6 6 6 6 6 5 4 4 4 4 3 3 3 2
11 11 10 10 9 9 9 10 10 10 11 10 10 10 10 10 11 11 11 10 9 8 9 8 8 7 7 7 6 6 6 6 6 5 5 5 4 4 3 3 4 3
10 10 10 10 9 9 9 10 10 10 9 9 9 10 10 9 11 12 12 11 10 9 9 9 8 8 7 7 7 6 6 6 6 5 5 5 4 4 4 4 5 4
10 11 11 10 11 11 11 10 9 9 9 8 8 8 8 8 8 10 11 11 11 11 11 10 9 9 8 8 7 7 7 7 7 6 6 6 5 5 5 5 5 5
12 12 12 13 13 13 13 12 11 10 10 9 8 8 8 7 6 7 8 9 10 11 12 12 11 10 9 9 8 8 7 7 7 8 8 8 7 7 6 6 6 5
13 14 14 14 15 15 15 14 14 13 12 12 11 10 10 9 8 8 8 8 9 10 12 13 13 13 12 11 9 8 8 8 8 8 9 9 9 9 9 8 8 7
15 16 16 16 16 16 16 16 15 15 15 14 14 13 13 12 12 11 11 10 10 10 11 12 13 15 15 14 13 11 9 9 9 9 9 9 10 10 11 11 11 10
18 18 18 18 18 18 18 17 17 16 16 16 16 15 15 14 14 14 14 13 13 12 12 12 12 13 15 16 16 14 12 11 11 11 11 11 11 11 11 12 12 12
20 21 21 21 21 21 21 20 19 18 18 17 17 17 16 16 16 15 15 14 14 13 13 12 12 12 15 16 17 17 15 13 13 13 13 13 12 12 12 12 12 12
22 22 23 23 24 23 23 23 22 21 20 19 18 18 17 17 16 16 15 14 14 13 12 12 11 11 13 15 18 19 17 16 16 16 16 15 15 14 13 13 12 12
23 24 24 25 25 25 25 24 24 23 23 22 21 20 19 17 17 16 15 15 14 13 13 11 11 10 9 11 19 22 19 19 19 18 18 18 18 18 17 16 15 14
24 25 25 25 25 26 26 26 26 25 25 24 23 22 21 19 19 17 16 15 14 14 13 11 10 9 6 10 19 23 21 20 20 20 20 20 20 19 19 19 18 17
26 26 26 26 27 27 27 27 27 26 26 25 24 23 22 21 20 19 17 16 14 13 13 10 9 9 6 7 14 21 23 21 21 20 21 21 21 20 20 20 20 19
27 27 27 28 28 28 28 27 27 26 26 25 24 23 22 21 20 19 18 17 15 13 13 11 9 9 8 5 10 19 26 24 21 20 20 21 22 21 21 21 20 20
29 28 28 29 29 28 28 27 27 26 25 24 23 22 22 21 20 20 19 18 16 14 13 12 10 9 10 8 7 17 25 25 23 22 20 20 22 21 21 21 21 20
29 29 29 28 28 28 27 26 25 25 23 22 22 21 21 20 20 19 19 18 17 15 14 13 12 10 10 11 10 15 24 27 26 25 21 19 20 20 20 20 21 21
28 28 28 27 27 26 26 25 24 24 23 21 21 20 20 20 20 20 20 19 18 18 16 15 14 12 12 12 12 14 21 26 27 27 24 22 21 21 20 21 21 21
27 27 26 26 25 25 24 24 23 23 22 21 21 20 20 20 20 20 21 21 20 19 18 17 16 15 15 15 14 16 19 24 27 28 26 24 24 23 22 22 22 21
26 26 25 25 24 24 23 23 22 22 22 22 21 21 21 21 21 21 21 21 21 21 20 19 18 17 16 17 17 17 18 20 24 27 27 26 26 24 23 23 22 22
26 25 25 25 24 24 23 23 23 22 22 22 21 22 22 21 22 22 22 22 22 22 22 21 20 19 17 17 18 18 18 20 24 27 27 26 27 26 24 24 23 22
Wind_Direction
258 247 239 238 241 242 240 236 231 226 221 216 213 209 202 194 181 174 165 148 136 118 103 92 84 82 77 72 64 62 85 104 124 131 131 171 211 220 228 234 241 248
245 237 235 238 240 239 235 230 223 214 204 191 180 169 161 156 146 138 133 128 121 110 106 104 94 88 89 94 91 83 85 91 92 85 79 82 112 158 200 213 222 237
248 242 237 232 228 223 218 211 201 189 174 160 149 141 137 136 134 130 126 123 119 117 115 110 102 95 93 98 102 101 99 99 97 90 83 85 91 92 95 101 124 262
241 227 210 195 183 181 181 180 175 164 153 141 131 126 120 116 119 119 117 117 118 122 122 114 107 102 96 97 102 107 108 105 100 96 93 93 91 87 90 86 74 50
106 107 101 95 92 92 103 119 123 128 132 122 109 100 93 91 93 94 96 99 100 104 111 109 105 105 103 99 97 100 103 102 97 96 97 100 96 88 85 88 85 76
74 75 72 69 65 63 66 70 69 66 72 81 79 74 69 66 67 71 75 79 81 78 80 89 94 95 94 94 93 92 92 91 87 84 86 93 94 90 89 91 91 86
61 59 57 55 53 52 56 60 60 57 54 50 49 49 47 42 41 49 57 63 68 66 60 62 71 78 78 78 79 78 76 74 71 64 60 64 68 71 80 84 81 73
59 59 57 54 51 49 49 51 51 52 52 49 45 43 38 26 20 24 35 43 49 54 55 50 50 56 59 60 62 63 64 63 59 53 48 51 50 45 45 46 44 40
59 60 59 58 57 56 54 52 48 45 44 43 44 45 42 30 15 10 12 19 24 29 36 38 37 37 39 41 43 44 45 45 44 42 37 35 34 30 28 27 23 17
46 47 47 46 48 49 49 50 48 46 42 37 36 37 39 38 26 12 5 3 5 9 13 17 18 20 20 19 20 24 26 26 22 19 16 13 11 11 12 10 5 1
29 29 28 28 28 29 30 31 32 33 32 31 30 26 25 26 24 20 11 360 355 356 358 359 360 360 1 3 4 6 7 6 3 360 356 353 351 350 350 348 347 345
17 17 17 18 17 16 15 14 14 14 15 15 16 15 13 10 7 9 11 8 1 354 350 348 346 344 344 346 348 350 352 351 349 347 343 339 336 334 333 333 333 333
9 9 10 9 9 8 7 6 5 4 4 4 4 4 2 2 2 0 1 4 4 360 354 349 344 337 335 333 332 333 338 340 338 337 334 332 330 327 325 324 324 323
2 1 0 360 360 359 358 359 359 358 358 357 357 356 354 355 356 355 356 356 356 357 354 352 349 339 331 326 323 323 326 328 325 324 325 327 326 325 322 319 318 317
354 352 351 351 351 350 350 352 352 353 353 352 351 350 349 349 348 348 350 348 348 350 347 348 350 342 334 328 319 316 319 318 315 314 314 316 316 318 319 316 314 313
346 344 344 344 344 344 344 345 345 346 347 346 346 345 343 343 342 342 342 339 340 341 339 342 342 340 345 336 316 312 314 312 311 310 309 310 312 311 311 311 309 307
338 338 338 338 338 338 338 339 340 340 340 340 340 339 337 337 336 335 334 331 332 331 330 335 333 333 356 344 315 307 308 306 306 307 306 307 309 310 309 308 305 302
331 332 332 332 332 333 333 334 334 334 335 335 335 334 333 332 330 329 329 327 326 325 323 327 324 318 347 353 324 307 301 301 302 303 304 304 305 307 307 306 304 302
326 326 327 327 327 328 328 329 329 330 330 330 331 330 329 328 327 325 325 325 323 323 319 318 317 302 301 348 332 307 297 298 300 300 303 303 302 304 304 303 303 301
321 322 322 323 323 324 324 325 325 326 327 327 327 326 325 324 324 322 321 322 322 322 319 316 315 300 279 296 333 315 303 300 300 300 302 303 302 303 303 302 302 301
317 318 318 319 320 321 322 323 323 323 324 324 324 324 323 322 321 320 319 319 319 318 318 314 311 306 286 273 304 317 309 303 300 299 301 303 303 303 303 303 303 302
313 314 315 316 317 318 320 321 321 321 322 323 322 322 321 320 319 318 317 317 316 314 314 312 305 303 294 275 274 300 307 304 301 299 299 298 298 300 302 303 303 303
311 312 313 314 315 317 317 318 319 319 320 320 319 319 318 317 317 317 315 315 315 312 310 308 303 299 296 286 273 283 299 304 303 301 301 299 297 299 301 301 301 301
311 311 312 314 314 315 316 316 316 316 317 317 316 316 316 315 315 315 314 313 312 312 309 306 304 299 296 294 285 281 294 305 306 303 302 303 302 300 301 301 301 301
311 312 313 314 315 315 315 314 314 314 314 314 315 314 314 314 313 312 312 311 310 310 308 306 304 301 297 295 292 288 291 299 302 301 303 304 303 301 301 300 299 300
312 313 313 314 314 314 314 314 314 315 314 314 314 313 312 312 312 311 310 310 309 308 308 306 304 302 298 294 292 291 290 289 292 297 302 303 302 302 303 301 299 298